PRIVATE WETTERSTATION BILLIGHEIM-ALLFELD                       ZURCK
Wetterdaten: Montag, 18.04.2022
Datum Zeit Temp. A. Temp. A. min Temp. A. max Feuchte A. Luftdruck Regen Wind Richtung Richtung Sonnenschein ET Solar Taupunkt Windchill Windben Empfang
18.04.2022 00:00 7,4 C 7,4 C 8,0 C 59 % 1020,7 hPa 0,0 l/m 0,0 km/h (0 Bft) NO 48 0 min 0,000 mm 0 W/m -0,1 C 7,4 C 0,0 km/h (0 Bft) 100 %
18.04.2022 00:10 6,5 C 6,5 C 7,4 C 62 % 1020,7 hPa 0,0 l/m 0,0 km/h (0 Bft) NO 49 0 min 3,378 mm 0 W/m -0,2 C 6,5 C 1,6 km/h (1 Bft) 100 %
18.04.2022 00:20 5,8 C 5,8 C 6,5 C 65 % 1020,6 hPa 0,0 l/m 0,2 km/h (0 Bft) NO 48 0 min 0,000 mm 0 W/m -0,3 C 5,8 C 3,2 km/h (1 Bft) 100 %
18.04.2022 00:30 5,6 C 5,4 C 5,8 C 61 % 1020,5 hPa 0,0 l/m 0,3 km/h (0 Bft) O-SO 114 0 min 0,000 mm 0 W/m -1,3 C 5,6 C 9,7 km/h (2 Bft) 100 %
18.04.2022 00:40 5,8 C 5,6 C 5,8 C 64 % 1020,7 hPa 0,0 l/m 0,0 km/h (0 Bft) O-SO 113 0 min 0,000 mm 0 W/m -0,5 C 5,8 C 1,6 km/h (1 Bft) 100 %
18.04.2022 00:50 5,1 C 5,1 C 5,8 C 69 % 1021,0 hPa 0,0 l/m 2,6 km/h (1 Bft) S-SO 159 0 min 0,000 mm 0 W/m -0,1 C 5,1 C 9,7 km/h (2 Bft) 99 %
18.04.2022 01:00 4,6 C 4,5 C 5,1 C 69 % 1020,8 hPa 0,0 l/m 0,6 km/h (0 Bft) S-SO 160 0 min 0,026 mm 0 W/m -0,6 C 4,6 C 8,0 km/h (2 Bft) 100 %
18.04.2022 01:10 4,7 C 4,5 C 4,7 C 68 % 1020,7 hPa 0,0 l/m 0,0 km/h (0 Bft) S-SO 160 0 min 0,000 mm 0 W/m -0,7 C 4,7 C 0,0 km/h (0 Bft) 100 %
18.04.2022 01:20 4,7 C 4,7 C 4,8 C 68 % 1020,7 hPa 0,0 l/m 0,0 km/h (0 Bft) S-SO 155 0 min 0,000 mm 0 W/m -0,7 C 4,7 C 1,6 km/h (1 Bft) 100 %
18.04.2022 01:30 4,4 C 4,4 C 4,7 C 71 % 1020,6 hPa 0,0 l/m 0,0 km/h (0 Bft) S-SO 153 0 min 0,000 mm 0 W/m -0,4 C 4,4 C 0,0 km/h (0 Bft) 99 %
18.04.2022 01:40 3,8 C 3,8 C 4,4 C 72 % 1020,5 hPa 0,0 l/m 3,1 km/h (1 Bft) S-SO 153 0 min 0,000 mm 0 W/m -0,8 C 3,8 C 4,8 km/h (1 Bft) 97 %
18.04.2022 01:50 3,3 C 3,3 C 3,8 C 74 % 1020,4 hPa 0,0 l/m 0,7 km/h (0 Bft) S-SO 153 0 min 0,000 mm 0 W/m -0,9 C 3,3 C 3,2 km/h (1 Bft) 98 %
18.04.2022 02:00 3,2 C 3,2 C 3,3 C 74 % 1020,3 hPa 0,0 l/m 0,0 km/h (0 Bft) S-SO 150 0 min 0,025 mm 0 W/m -1,0 C 3,2 C 0,0 km/h (0 Bft) 97 %
18.04.2022 02:10 3,3 C 3,2 C 3,3 C 74 % 1020,3 hPa 0,0 l/m 0,0 km/h (0 Bft) S-SO 148 0 min 0,000 mm 0 W/m -0,9 C 3,3 C 0,0 km/h (0 Bft) 98 %
18.04.2022 02:20 3,3 C 3,3 C 3,3 C 72 % 1020,2 hPa 0,0 l/m 0,3 km/h (0 Bft) SO 128 0 min 0,000 mm 0 W/m -1,3 C 3,3 C 6,4 km/h (2 Bft) 97 %
18.04.2022 02:30 4,1 C 3,3 C 4,1 C 68 % 1020,1 hPa 0,0 l/m 0,0 km/h (0 Bft) SO 126 0 min 0,000 mm 0 W/m -1,3 C 4,1 C 0,0 km/h (0 Bft) 98 %
18.04.2022 02:40 4,8 C 4,1 C 4,8 C 65 % 1020,0 hPa 0,0 l/m 0,4 km/h (0 Bft) O-SO 112 0 min 0,000 mm 0 W/m -1,2 C 4,8 C 6,4 km/h (2 Bft) 97 %
18.04.2022 02:50 5,0 C 4,8 C 5,0 C 64 % 1020,0 hPa 0,0 l/m 0,0 km/h (0 Bft) O-SO 112 0 min 0,000 mm 0 W/m -1,2 C 5,0 C 1,6 km/h (1 Bft) 98 %
18.04.2022 03:00 5,2 C 5,0 C 5,2 C 62 % 1019,9 hPa 0,0 l/m 0,7 km/h (0 Bft) O 86 0 min 0,025 mm 0 W/m -1,5 C 5,2 C 6,4 km/h (2 Bft) 97 %
18.04.2022 03:10 5,6 C 5,2 C 5,6 C 61 % 1019,9 hPa 0,0 l/m 1,1 km/h (1 Bft) O 85 0 min 0,000 mm 0 W/m -1,3 C 5,6 C 8,0 km/h (2 Bft) 97 %
18.04.2022 03:20 5,7 C 5,6 C 5,7 C 61 % 1019,7 hPa 0,0 l/m 0,4 km/h (0 Bft) O 92 0 min 0,000 mm 0 W/m -1,2 C 5,7 C 8,0 km/h (2 Bft) 98 %
18.04.2022 03:30 5,6 C 5,6 C 5,7 C 61 % 1019,8 hPa 0,0 l/m 0,0 km/h (0 Bft) O 92 0 min 0,000 mm 0 W/m -1,3 C 5,6 C 0,0 km/h (0 Bft) 97 %
18.04.2022 03:40 5,4 C 5,4 C 5,6 C 62 % 1019,6 hPa 0,0 l/m 0,5 km/h (0 Bft) N-NO 28 0 min 0,000 mm 0 W/m -1,3 C 5,4 C 9,7 km/h (2 Bft) 98 %
18.04.2022 03:50 5,1 C 5,1 C 5,4 C 63 % 1019,7 hPa 0,0 l/m 0,0 km/h (0 Bft) N-NO 32 0 min 0,000 mm 0 W/m -1,4 C 5,1 C 3,2 km/h (1 Bft) 97 %
18.04.2022 04:00 4,3 C 4,3 C 5,1 C 67 % 1019,6 hPa 0,0 l/m 0,0 km/h (0 Bft) N-NO 31 0 min 0,026 mm 0 W/m -1,3 C 4,3 C 1,6 km/h (1 Bft) 98 %
18.04.2022 04:10 3,3 C 3,3 C 4,3 C 71 % 1019,5 hPa 0,0 l/m 0,0 km/h (0 Bft) N-NO 30 0 min 0,000 mm 0 W/m -1,4 C 3,3 C 1,6 km/h (1 Bft) 97 %
18.04.2022 04:20 3,1 C 3,0 C 3,3 C 71 % 1019,4 hPa 0,0 l/m 0,0 km/h (0 Bft) N-NO 30 0 min 0,000 mm 0 W/m -1,6 C 3,1 C 0,0 km/h (0 Bft) 100 %
18.04.2022 04:30 3,1 C 3,1 C 3,1 C 71 % 1019,4 hPa 0,0 l/m 0,2 km/h (0 Bft) N-NO 31 0 min 0,000 mm 0 W/m -1,6 C 3,1 C 3,2 km/h (1 Bft) 99 %
18.04.2022 04:40 3,1 C 3,1 C 3,2 C 72 % 1019,4 hPa 0,0 l/m 1,4 km/h (1 Bft) N-NO 31 0 min 0,000 mm 0 W/m -1,4 C 3,1 C 4,8 km/h (1 Bft) 100 %
18.04.2022 04:50 2,6 C 2,6 C 3,1 C 74 % 1019,3 hPa 0,0 l/m 3,0 km/h (1 Bft) N 355 0 min 0,000 mm 0 W/m -1,6 C 2,6 C 6,4 km/h (2 Bft) 100 %
18.04.2022 05:00 2,2 C 2,2 C 2,6 C 76 % 1019,2 hPa 0,0 l/m 2,3 km/h (1 Bft) N 355 0 min 0,025 mm 0 W/m -1,6 C 2,2 C 4,8 km/h (1 Bft) 100 %
18.04.2022 05:10 2,0 C 2,0 C 2,2 C 74 % 1019,1 hPa 0,0 l/m 0,1 km/h (0 Bft) N 5 0 min 0,000 mm 0 W/m -2,1 C 2,0 C 3,2 km/h (1 Bft) 100 %
18.04.2022 05:20 2,4 C 2,0 C 2,4 C 72 % 1019,0 hPa 0,0 l/m 0,5 km/h (0 Bft) N 5 0 min 0,000 mm 0 W/m -2,1 C 2,4 C 4,8 km/h (1 Bft) 100 %
18.04.2022 05:30 2,9 C 2,4 C 2,9 C 70 % 1018,9 hPa 0,0 l/m 0,0 km/h (0 Bft) N 5 0 min 0,000 mm 0 W/m -2,0 C 2,9 C 0,0 km/h (0 Bft) 100 %
18.04.2022 05:40 2,9 C 2,9 C 3,1 C 72 % 1018,9 hPa 0,0 l/m 0,0 km/h (0 Bft) N 5 0 min 0,000 mm 0 W/m -1,6 C 2,9 C 1,6 km/h (1 Bft) 100 %
18.04.2022 05:50 2,3 C 2,3 C 2,9 C 74 % 1018,8 hPa 0,0 l/m 3,9 km/h (1 Bft) N-NW 333 0 min 0,000 mm 0 W/m -1,8 C 2,3 C 6,4 km/h (2 Bft) 100 %
18.04.2022 06:00 2,0 C 2,0 C 2,3 C 75 % 1018,8 hPa 0,0 l/m 1,4 km/h (1 Bft) N-NW 340 0 min 0,026 mm 0 W/m -2,0 C 2,0 C 8,0 km/h (2 Bft) 100 %
18.04.2022 06:10 1,8 C 1,8 C 2,0 C 75 % 1018,8 hPa 0,0 l/m 0,2 km/h (0 Bft) N-NW 340 0 min 0,000 mm 0 W/m -2,1 C 1,8 C 3,2 km/h (1 Bft) 100 %
18.04.2022 06:20 1,6 C 1,6 C 1,8 C 75 % 1018,8 hPa 0,0 l/m 0,3 km/h (0 Bft) N-NW 344 0 min 0,000 mm 0 W/m -2,3 C 1,6 C 4,8 km/h (1 Bft) 100 %
18.04.2022 06:30 1,8 C 1,4 C 1,8 C 75 % 1018,8 hPa 0,0 l/m 4,7 km/h (1 Bft) N-NO 22 0 min 0,000 mm 5 W/m -2,1 C 1,8 C 6,4 km/h (2 Bft) 100 %
18.04.2022 06:40 2,8 C 1,8 C 2,8 C 71 % 1018,8 hPa 0,0 l/m 3,6 km/h (1 Bft) N-NO 26 0 min 0,000 mm 9 W/m -1,9 C 2,8 C 6,4 km/h (2 Bft) 100 %
18.04.2022 06:50 3,1 C 2,8 C 3,1 C 70 % 1018,8 hPa 0,0 l/m 2,5 km/h (1 Bft) N-NO 24 0 min 0,000 mm 12 W/m -1,8 C 3,1 C 6,4 km/h (2 Bft) 100 %
18.04.2022 07:00 3,2 C 3,1 C 3,2 C 69 % 1018,7 hPa 0,0 l/m 0,1 km/h (0 Bft) N-NO 24 0 min 0,000 mm 14 W/m -1,9 C 3,2 C 3,2 km/h (1 Bft) 100 %
18.04.2022 07:10 3,2 C 3,2 C 3,2 C 69 % 1018,6 hPa 0,0 l/m 0,4 km/h (0 Bft) N-NO 23 0 min 0,000 mm 18 W/m -1,9 C 3,2 C 6,4 km/h (2 Bft) 91 %
18.04.2022 07:20 3,2 C 3,2 C 3,2 C 71 % 1018,6 hPa 0,0 l/m 1,0 km/h (0 Bft) N-NO 19 0 min 0,000 mm 21 W/m -1,5 C 3,2 C 3,2 km/h (1 Bft) 100 %
18.04.2022 07:30 3,0 C 3,0 C 3,2 C 73 % 1018,6 hPa 0,0 l/m 0,6 km/h (0 Bft) N-NO 15 0 min 0,000 mm 23 W/m -1,4 C 3,0 C 4,8 km/h (1 Bft) 100 %
18.04.2022 07:40 3,1 C 3,0 C 3,1 C 72 % 1018,7 hPa 0,0 l/m 0,2 km/h (0 Bft) N-NO 14 0 min 0,000 mm 26 W/m -1,4 C 3,1 C 3,2 km/h (1 Bft) 100 %
18.04.2022 07:50 3,3 C 3,1 C 3,3 C 72 % 1018,8 hPa 0,0 l/m 0,0 km/h (0 Bft) N-NO 14 0 min 0,000 mm 35 W/m -1,3 C 3,3 C 1,6 km/h (1 Bft) 100 %
18.04.2022 08:00 3,6 C 3,3 C 3,6 C 71 % 1018,8 hPa 0,0 l/m 0,6 km/h (0 Bft) N-NO 15 0 min 0,025 mm 32 W/m -1,2 C 3,6 C 4,8 km/h (1 Bft) 100 %
18.04.2022 08:10 3,9 C 3,6 C 3,9 C 70 % 1018,9 hPa 0,0 l/m 0,2 km/h (0 Bft) N-NO 18 0 min 0,000 mm 33 W/m -1,1 C 3,9 C 6,4 km/h (2 Bft) 100 %
18.04.2022 08:20 4,2 C 3,9 C 4,2 C 69 % 1018,8 hPa 0,0 l/m 0,0 km/h (0 Bft) N-NO 18 0 min 0,000 mm 42 W/m -1,0 C 4,2 C 0,0 km/h (0 Bft) 100 %
18.04.2022 08:30 4,7 C 4,2 C 4,7 C 68 % 1018,8 hPa 0,0 l/m 0,0 km/h (0 Bft) N-NO 18 10 min 0,000 mm 200 W/m -0,7 C 4,7 C 0,0 km/h (0 Bft) 100 %
18.04.2022 08:40 5,6 C 4,7 C 5,6 C 67 % 1018,8 hPa 0,0 l/m 0,0 km/h (0 Bft) N-NO 26 10 min 0,000 mm 339 W/m -0,0 C 5,6 C 1,6 km/h (1 Bft) 100 %
18.04.2022 08:50 6,6 C 5,6 C 6,6 C 65 % 1018,8 hPa 0,0 l/m 0,2 km/h (0 Bft) N-NO 30 10 min 0,000 mm 367 W/m 0,5 C 6,6 C 8,0 km/h (2 Bft) 100 %
18.04.2022 09:00 7,6 C 6,6 C 7,6 C 63 % 1018,8 hPa 0,0 l/m 0,4 km/h (0 Bft) NO 44 10 min 0,076 mm 396 W/m 1,0 C 7,6 C 8,0 km/h (2 Bft) 100 %
18.04.2022 09:10 8,3 C 7,6 C 8,3 C 59 % 1018,7 hPa 0,0 l/m 0,0 km/h (0 Bft) NO 44 10 min 0,000 mm 427 W/m 0,8 C 8,3 C 1,6 km/h (1 Bft) 100 %
18.04.2022 09:20 8,7 C 8,3 C 8,7 C 58 % 1018,7 hPa 0,0 l/m 0,0 km/h (0 Bft) NO 43 10 min 0,000 mm 448 W/m 0,9 C 8,7 C 1,6 km/h (1 Bft) 100 %
18.04.2022 09:30 9,3 C 8,7 C 9,3 C 59 % 1018,7 hPa 0,0 l/m 0,1 km/h (0 Bft) NO 42 10 min 0,000 mm 482 W/m 1,7 C 9,3 C 4,8 km/h (1 Bft) 100 %
18.04.2022 09:40 9,9 C 9,3 C 9,9 C 57 % 1018,7 hPa 0,0 l/m 1,1 km/h (1 Bft) O-NO 75 10 min 0,000 mm 506 W/m 1,8 C 9,9 C 9,7 km/h (2 Bft) 100 %
18.04.2022 09:50 10,6 C 9,9 C 10,6 C 54 % 1018,7 hPa 0,0 l/m 0,2 km/h (0 Bft) O-NO 67 10 min 0,000 mm 520 W/m 1,7 C 10,6 C 4,8 km/h (1 Bft) 100 %
18.04.2022 10:00 11,2 C 10,6 C 11,2 C 53 % 1018,7 hPa 0,0 l/m 0,0 km/h (0 Bft) O 84 10 min 0,229 mm 550 W/m 2,0 C 11,2 C 1,6 km/h (1 Bft) 99 %
18.04.2022 10:10 11,2 C 11,2 C 11,2 C 51 % 1018,7 hPa 0,0 l/m 1,5 km/h (1 Bft) O-SO 114 10 min 0,000 mm 584 W/m 1,4 C 11,2 C 9,7 km/h (2 Bft) 100 %
18.04.2022 10:20 11,1 C 11,1 C 11,2 C 52 % 1018,7 hPa 0,0 l/m 2,2 km/h (1 Bft) O 79 10 min 0,000 mm 608 W/m 1,6 C 11,1 C 8,0 km/h (2 Bft) 100 %
18.04.2022 10:30 11,3 C 11,1 C 11,3 C 50 % 1018,7 hPa 0,0 l/m 3,8 km/h (1 Bft) O-SO 121 10 min 0,000 mm 629 W/m 1,3 C 11,3 C 14,5 km/h (3 Bft) 100 %
18.04.2022 10:40 11,8 C 11,3 C 11,8 C 53 % 1018,8 hPa 0,0 l/m 0,4 km/h (0 Bft) O-NO 76 10 min 0,000 mm 647 W/m 2,5 C 11,8 C 8,0 km/h (2 Bft) 99 %
18.04.2022 10:50 12,2 C 11,8 C 12,2 C 47 % 1018,8 hPa 0,0 l/m 2,5 km/h (1 Bft) O-NO 69 10 min 0,000 mm 659 W/m 1,2 C 12,2 C 14,5 km/h (3 Bft) 100 %
18.04.2022 11:00 12,1 C 12,1 C 12,2 C 49 % 1018,7 hPa 0,0 l/m 5,9 km/h (2 Bft) O 80 10 min 0,305 mm 670 W/m 1,7 C 12,1 C 20,9 km/h (4 Bft) 100 %
18.04.2022 11:10 12,5 C 12,1 C 12,5 C 47 % 1018,7 hPa 0,0 l/m 6,6 km/h (2 Bft) SO 146 10 min 0,000 mm 705 W/m 1,5 C 12,4 C 19,3 km/h (3 Bft) 100 %
18.04.2022 11:20 12,7 C 12,4 C 12,7 C 48 % 1018,5 hPa 0,0 l/m 3,1 km/h (1 Bft) S-SO 148 10 min 0,000 mm 719 W/m 2,0 C 12,7 C 11,3 km/h (2 Bft) 100 %
18.04.2022 11:30 13,1 C 12,7 C 13,1 C 48 % 1018,3 hPa 0,0 l/m 1,9 km/h (1 Bft) N-NW 347 10 min 0,000 mm 733 W/m 2,3 C 13,1 C 9,7 km/h (2 Bft) 100 %
18.04.2022 11:40 13,6 C 13,1 C 13,7 C 43 % 1018,4 hPa 0,0 l/m 2,1 km/h (1 Bft) O 80 10 min 0,000 mm 744 W/m 1,3 C 13,6 C 17,7 km/h (3 Bft) 100 %
18.04.2022 11:50 13,7 C 13,6 C 13,7 C 46 % 1018,2 hPa 0,0 l/m 0,5 km/h (0 Bft) O-NO 76 10 min 0,000 mm 759 W/m 2,3 C 13,7 C 9,7 km/h (2 Bft) 100 %
18.04.2022 12:00 13,6 C 13,6 C 13,8 C 44 % 1018,2 hPa 0,0 l/m 4,6 km/h (1 Bft) SO 126 10 min 0,381 mm 775 W/m 1,6 C 13,6 C 17,7 km/h (3 Bft) 100 %
18.04.2022 12:10 13,4 C 13,3 C 13,6 C 44 % 1018,0 hPa 0,0 l/m 1,8 km/h (1 Bft) NO 55 10 min 0,000 mm 786 W/m 1,4 C 13,4 C 14,5 km/h (3 Bft) 100 %
18.04.2022 12:20 13,8 C 13,4 C 13,8 C 44 % 1017,9 hPa 0,0 l/m 0,3 km/h (0 Bft) N-NO 22 10 min 0,000 mm 791 W/m 1,8 C 13,8 C 12,9 km/h (3 Bft) 100 %
18.04.2022 12:30 14,3 C 13,8 C 14,3 C 44 % 1017,8 hPa 0,0 l/m 0,7 km/h (0 Bft) N-NO 24 10 min 0,000 mm 798 W/m 2,2 C 14,3 C 8,0 km/h (2 Bft) 100 %
18.04.2022 12:40 14,5 C 14,3 C 14,6 C 43 % 1017,6 hPa 0,0 l/m 0,9 km/h (0 Bft) SO 146 10 min 0,000 mm 809 W/m 2,1 C 14,5 C 14,5 km/h (3 Bft) 100 %
18.04.2022 12:50 14,4 C 14,4 C 14,6 C 42 % 1017,5 hPa 0,0 l/m 2,8 km/h (1 Bft) O 89 10 min 0,000 mm 810 W/m 1,7 C 14,4 C 16,1 km/h (3 Bft) 100 %
18.04.2022 13:00 14,6 C 14,4 C 14,6 C 44 % 1017,4 hPa 0,0 l/m 1,1 km/h (1 Bft) SO 124 10 min 0,406 mm 812 W/m 2,5 C 14,6 C 14,5 km/h (3 Bft) 100 %
18.04.2022 13:10 14,7 C 14,6 C 14,7 C 45 % 1017,4 hPa 0,0 l/m 0,5 km/h (0 Bft) O-SO 121 10 min 0,000 mm 814 W/m 2,9 C 14,7 C 11,3 km/h (2 Bft) 100 %
18.04.2022 13:20 14,9 C 14,7 C 15,0 C 45 % 1017,3 hPa 0,0 l/m 0,5 km/h (0 Bft) O-SO 113 10 min 0,000 mm 814 W/m 3,1 C 14,9 C 8,0 km/h (2 Bft) 100 %
18.04.2022 13:30 15,2 C 14,9 C 15,2 C 44 % 1017,3 hPa 0,0 l/m 0,8 km/h (0 Bft) N-NO 32 10 min 0,000 mm 821 W/m 3,0 C 15,2 C 14,5 km/h (3 Bft) 99 %
18.04.2022 13:40 15,5 C 15,2 C 15,6 C 43 % 1017,1 hPa 0,0 l/m 0,1 km/h (0 Bft) N 9 10 min 0,000 mm 817 W/m 3,0 C 15,5 C 4,8 km/h (1 Bft) 100 %
18.04.2022 13:50 15,6 C 15,5 C 15,6 C 41 % 1017,1 hPa 0,0 l/m 0,5 km/h (0 Bft) O 101 10 min 0,000 mm 812 W/m 2,4 C 15,6 C 9,7 km/h (2 Bft) 100 %
18.04.2022 14:00 15,7 C 15,4 C 15,7 C 44 % 1016,9 hPa 0,0 l/m 0,4 km/h (0 Bft) N-NW 330 10 min 0,432 mm 812 W/m 3,5 C 15,7 C 9,7 km/h (2 Bft) 100 %
18.04.2022 14:10 15,9 C 15,7 C 15,9 C 45 % 1016,9 hPa 0,0 l/m 0,7 km/h (0 Bft) O-SO 121 10 min 0,000 mm 795 W/m 4,0 C 15,9 C 8,0 km/h (2 Bft) 100 %
18.04.2022 14:20 16,1 C 15,9 C 16,1 C 40 % 1016,7 hPa 0,0 l/m 0,5 km/h (0 Bft) N-NW 346 10 min 0,000 mm 793 W/m 2,5 C 16,1 C 8,0 km/h (2 Bft) 99 %
18.04.2022 14:30 16,2 C 16,1 C 16,2 C 41 % 1016,4 hPa 0,0 l/m 2,3 km/h (1 Bft) N 10 10 min 0,000 mm 788 W/m 2,9 C 16,2 C 9,7 km/h (2 Bft) 100 %
18.04.2022 14:40 16,4 C 16,2 C 16,4 C 41 % 1016,4 hPa 0,0 l/m 1,4 km/h (1 Bft) O-NO 61 10 min 0,000 mm 765 W/m 3,1 C 16,4 C 9,7 km/h (2 Bft) 100 %
18.04.2022 14:50 16,1 C 16,1 C 16,4 C 40 % 1016,4 hPa 0,0 l/m 2,4 km/h (1 Bft) O-SO 122 10 min 0,000 mm 772 W/m 2,5 C 16,1 C 16,1 km/h (3 Bft) 100 %
18.04.2022 15:00 16,2 C 16,1 C 16,2 C 42 % 1016,3 hPa 0,0 l/m 0,0 km/h (0 Bft) N 355 10 min 0,432 mm 742 W/m 3,3 C 16,2 C 1,6 km/h (1 Bft) 100 %
18.04.2022 15:10 16,5 C 16,2 C 16,5 C 40 % 1016,1 hPa 0,0 l/m 0,4 km/h (0 Bft) N-NO 30 10 min 0,000 mm 737 W/m 2,9 C 16,5 C 9,7 km/h (2 Bft) 100 %
18.04.2022 15:20 16,9 C 16,5 C 16,9 C 40 % 1015,9 hPa 0,0 l/m 0,2 km/h (0 Bft) N-NW 332 10 min 0,000 mm 724 W/m 3,2 C 16,9 C 8,0 km/h (2 Bft) 100 %
18.04.2022 15:30 17,0 C 16,9 C 17,2 C 38 % 1015,8 hPa 0,0 l/m 0,4 km/h (0 Bft) O-NO 61 10 min 0,000 mm 700 W/m 2,6 C 17,0 C 9,7 km/h (2 Bft) 100 %
18.04.2022 15:40 16,4 C 16,4 C 17,0 C 40 % 1015,7 hPa 0,0 l/m 1,0 km/h (0 Bft) O 92 10 min 0,000 mm 693 W/m 2,8 C 16,4 C 14,5 km/h (3 Bft) 100 %
18.04.2022 15:50 16,4 C 16,4 C 16,5 C 39 % 1015,5 hPa 0,0 l/m 0,8 km/h (0 Bft) O-SO 111 10 min 0,000 mm 675 W/m 2,4 C 16,4 C 9,7 km/h (2 Bft) 100 %
18.04.2022 16:00 16,9 C 16,4 C 16,9 C 42 % 1015,3 hPa 0,0 l/m 0,5 km/h (0 Bft) N-NW 348 10 min 0,381 mm 650 W/m 3,9 C 16,9 C 8,0 km/h (2 Bft) 99 %
18.04.2022 16:10 16,9 C 16,9 C 17,1 C 42 % 1015,3 hPa 0,0 l/m 0,2 km/h (0 Bft) O-SO 111 10 min 0,000 mm 624 W/m 3,9 C 16,9 C 3,2 km/h (1 Bft) 100 %
18.04.2022 16:20 17,3 C 16,9 C 17,3 C 40 % 1015,3 hPa 0,0 l/m 0,6 km/h (0 Bft) NW 323 10 min 0,000 mm 608 W/m 3,6 C 17,3 C 9,7 km/h (2 Bft) 100 %
18.04.2022 16:30 17,3 C 17,3 C 17,4 C 37 % 1015,1 hPa 0,0 l/m 0,1 km/h (0 Bft) N-NO 17 10 min 0,000 mm 585 W/m 2,5 C 17,3 C 4,8 km/h (1 Bft) 100 %
18.04.2022 16:40 17,3 C 17,3 C 17,4 C 39 % 1015,2 hPa 0,0 l/m 0,0 km/h (0 Bft) NO 38 10 min 0,000 mm 555 W/m 3,2 C 17,3 C 1,6 km/h (1 Bft) 100 %
18.04.2022 16:50 17,1 C 17,0 C 17,3 C 38 % 1015,1 hPa 0,0 l/m 0,3 km/h (0 Bft) N-NW 331 10 min 0,000 mm 529 W/m 2,7 C 17,1 C 4,8 km/h (1 Bft) 100 %
18.04.2022 17:00 17,1 C 17,0 C 17,2 C 38 % 1014,9 hPa 0,0 l/m 0,6 km/h (0 Bft) O-NO 67 10 min 0,330 mm 508 W/m 2,7 C 17,1 C 6,4 km/h (2 Bft) 100 %
18.04.2022 17:10 17,4 C 17,1 C 17,4 C 39 % 1014,8 hPa 0,0 l/m 0,0 km/h (0 Bft) W 271 10 min 0,000 mm 483 W/m 3,3 C 17,4 C 1,6 km/h (1 Bft) 100 %
18.04.2022 17:20 17,4 C 17,4 C 17,4 C 40 % 1014,8 hPa 0,0 l/m 0,0 km/h (0 Bft) N 9 10 min 0,000 mm 461 W/m 3,7 C 17,4 C 1,6 km/h (1 Bft) 100 %
18.04.2022 17:30 17,6 C 17,4 C 17,6 C 42 % 1014,7 hPa 0,0 l/m 0,0 km/h (0 Bft) N-NW 344 10 min 0,000 mm 431 W/m 4,5 C 17,6 C 1,6 km/h (1 Bft) 100 %
18.04.2022 17:40 17,5 C 17,5 C 17,6 C 40 % 1014,7 hPa 0,0 l/m 0,0 km/h (0 Bft) N 360 10 min 0,000 mm 403 W/m 3,8 C 17,5 C 1,6 km/h (1 Bft) 100 %
18.04.2022 17:50 17,6 C 17,5 C 17,6 C 37 % 1014,6 hPa 0,0 l/m 0,0 km/h (0 Bft) N 360 10 min 0,000 mm 374 W/m 2,7 C 17,6 C 1,6 km/h (1 Bft) 100 %
18.04.2022 18:00 17,4 C 17,4 C 17,6 C 38 % 1014,7 hPa 0,0 l/m 0,0 km/h (0 Bft) N-NO 20 10 min 0,254 mm 345 W/m 2,9 C 17,4 C 1,6 km/h (1 Bft) 100 %
18.04.2022 18:10 17,2 C 17,2 C 17,4 C 37 % 1014,7 hPa 0,0 l/m 0,0 km/h (0 Bft) N-NO 20 10 min 0,000 mm 309 W/m 2,4 C 17,2 C 0,0 km/h (0 Bft) 100 %
18.04.2022 18:20 17,0 C 16,9 C 17,2 C 38 % 1014,6 hPa 0,0 l/m 0,0 km/h (0 Bft) N-NO 28 10 min 0,000 mm 281 W/m 2,6 C 17,0 C 3,2 km/h (1 Bft) 100 %
18.04.2022 18:30 16,9 C 16,9 C 17,0 C 38 % 1014,5 hPa 0,0 l/m 0,1 km/h (0 Bft) NO 48 10 min 0,000 mm 260 W/m 2,5 C 16,9 C 4,8 km/h (1 Bft) 100 %
18.04.2022 18:40 16,4 C 16,4 C 16,9 C 38 % 1014,5 hPa 0,0 l/m 0,0 km/h (0 Bft) N-NO 16 10 min 0,000 mm 172 W/m 2,1 C 16,4 C 1,6 km/h (1 Bft) 100 %
18.04.2022 18:50 16,1 C 16,1 C 16,4 C 40 % 1014,4 hPa 0,0 l/m 0,0 km/h (0 Bft) N-NO 28 0 min 0,000 mm 39 W/m 2,5 C 16,1 C 3,2 km/h (1 Bft) 100 %
18.04.2022 19:00 15,7 C 15,7 C 16,1 C 41 % 1014,3 hPa 0,0 l/m 0,0 km/h (0 Bft) O-NO 71 0 min 0,127 mm 35 W/m 2,5 C 15,7 C 1,6 km/h (1 Bft) 100 %
18.04.2022 19:10 15,4 C 15,4 C 15,7 C 42 % 1014,3 hPa 0,0 l/m 0,0 km/h (0 Bft) O-NO 68 0 min 0,000 mm 32 W/m 2,6 C 15,4 C 1,6 km/h (1 Bft) 100 %
18.04.2022 19:20 15,1 C 15,1 C 15,4 C 42 % 1014,4 hPa 0,0 l/m 0,0 km/h (0 Bft) O-NO 67 0 min 0,000 mm 30 W/m 2,3 C 15,1 C 0,0 km/h (0 Bft) 91 %
18.04.2022 19:30 14,9 C 14,9 C 15,1 C 43 % 1014,3 hPa 0,0 l/m 0,0 km/h (0 Bft) O-NO 67 0 min 0,000 mm 26 W/m 2,4 C 14,9 C 0,0 km/h (0 Bft) 98 %
18.04.2022 19:40 14,6 C 14,6 C 14,9 C 45 % 1014,3 hPa 0,0 l/m 0,0 km/h (0 Bft) O-NO 67 0 min 0,000 mm 23 W/m 2,8 C 14,6 C 0,0 km/h (0 Bft) 98 %
18.04.2022 19:50 14,2 C 14,2 C 14,6 C 45 % 1014,4 hPa 0,0 l/m 0,0 km/h (0 Bft) O-NO 67 0 min 0,000 mm 18 W/m 2,4 C 14,2 C 1,6 km/h (1 Bft) 98 %
18.04.2022 20:00 13,9 C 13,9 C 14,2 C 47 % 1014,4 hPa 0,0 l/m 0,0 km/h (0 Bft) O-NO 67 0 min 0,025 mm 14 W/m 2,8 C 13,9 C 0,0 km/h (0 Bft) 97 %
18.04.2022 20:10 13,5 C 13,5 C 13,9 C 46 % 1014,4 hPa 0,0 l/m 0,0 km/h (0 Bft) O-NO 67 0 min 0,000 mm 9 W/m 2,1 C 13,5 C 0,0 km/h (0 Bft) 100 %
18.04.2022 20:20 13,2 C 13,2 C 13,5 C 45 % 1014,5 hPa 0,0 l/m 0,0 km/h (0 Bft) O-NO 67 0 min 0,000 mm 0 W/m 1,5 C 13,2 C 0,0 km/h (0 Bft) 99 %
18.04.2022 20:30 12,9 C 12,9 C 13,2 C 45 % 1014,5 hPa 0,0 l/m 0,0 km/h (0 Bft) O-NO 67 0 min 0,000 mm 0 W/m 1,3 C 12,9 C 0,0 km/h (0 Bft) 100 %
18.04.2022 20:40 12,8 C 12,8 C 12,9 C 46 % 1014,5 hPa 0,0 l/m 0,0 km/h (0 Bft) O-NO 67 0 min 0,000 mm 0 W/m 1,5 C 12,8 C 0,0 km/h (0 Bft) 100 %
18.04.2022 20:50 12,6 C 12,6 C 12,8 C 46 % 1014,6 hPa 0,0 l/m 0,0 km/h (0 Bft) O-NO 67 0 min 0,000 mm 0 W/m 1,3 C 12,6 C 0,0 km/h (0 Bft) 100 %
18.04.2022 21:00 12,3 C 12,3 C 12,6 C 47 % 1014,7 hPa 0,0 l/m 0,0 km/h (0 Bft) O-NO 67 0 min 0,000 mm 0 W/m 1,3 C 12,3 C 0,0 km/h (0 Bft) 100 %
18.04.2022 21:10 12,2 C 12,2 C 12,3 C 47 % 1014,7 hPa 0,0 l/m 0,0 km/h (0 Bft) O-NO 67 0 min 0,000 mm 0 W/m 1,2 C 12,2 C 0,0 km/h (0 Bft) 100 %
18.04.2022 21:20 12,1 C 12,1 C 12,2 C 47 % 1014,6 hPa 0,0 l/m 0,0 km/h (0 Bft) O-NO 65 0 min 0,000 mm 0 W/m 1,1 C 12,1 C 1,6 km/h (1 Bft) 91 %
18.04.2022 21:30 12,1 C 12,1 C 12,1 C 46 % 1014,7 hPa 0,0 l/m 0,0 km/h (0 Bft) O-NO 66 0 min 0,000 mm 0 W/m 0,8 C 12,1 C 0,0 km/h (0 Bft) 99 %
18.04.2022 21:40 11,7 C 11,7 C 12,1 C 51 % 1014,8 hPa 0,0 l/m 0,0 km/h (0 Bft) O-NO 61 0 min 0,000 mm 0 W/m 1,9 C 11,7 C 0,0 km/h (0 Bft) 100 %
18.04.2022 21:50 10,7 C 10,7 C 11,7 C 53 % 1014,7 hPa 0,0 l/m 0,0 km/h (0 Bft) NO 52 0 min 0,000 mm 0 W/m 1,5 C 10,7 C 0,0 km/h (0 Bft) 99 %
18.04.2022 22:00 9,9 C 9,9 C 10,7 C 56 % 1014,6 hPa 0,0 l/m 0,0 km/h (0 Bft) NO 51 0 min 0,026 mm 0 W/m 1,5 C 9,9 C 0,0 km/h (0 Bft) 100 %
18.04.2022 22:10 9,2 C 9,2 C 9,9 C 57 % 1014,5 hPa 0,0 l/m 0,0 km/h (0 Bft) NO 37 0 min 0,000 mm 0 W/m 1,1 C 9,2 C 1,6 km/h (1 Bft) 100 %
18.04.2022 22:20 8,8 C 8,8 C 9,2 C 56 % 1014,5 hPa 0,0 l/m 0,0 km/h (0 Bft) NO 37 0 min 0,000 mm 0 W/m 0,5 C 8,8 C 0,0 km/h (0 Bft) 100 %
18.04.2022 22:30 8,5 C 8,5 C 8,8 C 58 % 1014,4 hPa 0,0 l/m 0,0 km/h (0 Bft) NO 37 0 min 0,000 mm 0 W/m 0,7 C 8,5 C 0,0 km/h (0 Bft) 100 %
18.04.2022 22:40 8,2 C 8,2 C 8,5 C 59 % 1014,4 hPa 0,0 l/m 0,0 km/h (0 Bft) NO 37 0 min 0,000 mm 0 W/m 0,7 C 8,2 C 0,0 km/h (0 Bft) 100 %
18.04.2022 22:50 7,9 C 7,9 C 8,2 C 59 % 1014,4 hPa 0,0 l/m 0,0 km/h (0 Bft) NO 36 0 min 0,000 mm 0 W/m 0,4 C 7,9 C 0,0 km/h (0 Bft) 100 %
18.04.2022 23:00 7,7 C 7,7 C 7,9 C 61 % 1014,4 hPa 0,0 l/m 0,0 km/h (0 Bft) NO 36 0 min 0,025 mm 0 W/m 0,7 C 7,7 C 0,0 km/h (0 Bft) 100 %
18.04.2022 23:10 7,3 C 7,3 C 7,7 C 63 % 1014,4 hPa 0,0 l/m 0,0 km/h (0 Bft) NO 36 0 min 0,000 mm 0 W/m 0,7 C 7,3 C 0,0 km/h (0 Bft) 100 %
18.04.2022 23:20 7,0 C 6,9 C 7,3 C 63 % 1014,4 hPa 0,0 l/m 0,0 km/h (0 Bft) NO 36 0 min 0,000 mm 0 W/m 0,4 C 7,0 C 0,0 km/h (0 Bft) 100 %
18.04.2022 23:30 6,7 C 6,7 C 7,0 C 64 % 1014,3 hPa 0,0 l/m 0,0 km/h (0 Bft) NO 36 0 min 0,000 mm 0 W/m 0,4 C 6,7 C 0,0 km/h (0 Bft) 100 %
18.04.2022 23:40 6,5 C 6,5 C 6,7 C 68 % 1014,3 hPa 0,0 l/m 0,0 km/h (0 Bft) NO 36 0 min 0,000 mm 0 W/m 1,0 C 6,5 C 0,0 km/h (0 Bft) 100 %
18.04.2022 23:50 6,3 C 6,3 C 6,5 C 68 % 1014,3 hPa 0,0 l/m 0,0 km/h (0 Bft) NO 36 0 min 0,000 mm 0 W/m 0,8 C 6,3 C 0,0 km/h (0 Bft) 100 %
_ Min-Zeit 06:30 06:30 06:20 16:30 19:00 - 00:00 - - - - - 06:20 06:20 00:00 19:20
Minimum _ 1,4 C 1,4 C 1,8 C 37 % 1014,3 hPa - 0,0 km/h (0 Bft) - - - - - -2,3 C 1,6 C 0,0 km/h (0 Bft) 91 %
_ Max-Zeit 17:30 17:40 17:30 05:00 00:50 00:00 11:10 - - 08:30 00:10 13:30 17:30 17:30 11:00 00:00
Maximum _ 17,6 C 17,5 C 17,6 C 76 % 1021,0 hPa 0,0 l/m 6,6 km/h
SO (2 Bft)
- - 10 min 3,378 mm 821 W/m 4,5 C 17,6 C 20,9 km/h
O-SO (4 Bft)
100 %
Durchschnitt _ 9,9 C 9,7 C 10,1 C 55 % 1017,3 hPa #0,0 l/m 0,7 km/h (0 Bft) O - #10:20 h #6,985 mm 463 W/m 0,9 C 9,9 C 5,0 km/h (1 Bft) 99 %
PRIVATE WETTERSTATION BILLIGHEIM-ALLFELD - www.neckar-odenwald-wetter.de - Holger Sonntag